Regional Weather Roundup
Issued by NWS State College, PA

Home | Current Version | Previous Version | Graphics & Text | Print | Product List | Glossary On
Versions: 1 2 3 4 5 6 7 8 9 10 11 12 13 14 15 16 17 18 19 20 21 22 23 24 25 26 27 28 29 30 31 32 33 34 35 36 37 38 39 40 41 42 43 44 45 46 47 48 49 50
000
ASUS41 KCTP 052103
RWRCTP

REGIONAL WEATHER ROUNDUP
NATIONAL WEATHER SERVICE STATE COLLEGE PA
500 PM EDT SUN JUL 05 2015

Note: "fair" indicates few or no clouds below 12,000 feet with no
significant weather and/or obstructions to visibility.

* = STATION THAT DOES NOT REPORT PRECIPITATION /E.G. RAIN...SNOW...ETC/
    THUNDER OR FOG.

PAZ002>004-007>009-013>016-020>023-029>032-052200-
WESTERN PENNSYLVANIA

CITY           SKY/WX    TMP DP  RH WIND       PRES   REMARKS
ERIE           MOSUNNY   75  57  53 N8        30.13F
MEADVILLE      MOSUNNY   79  55  43 CALM      30.14F
FRANKLIN*      MOSUNNY   79  54  41 SE7       30.15F
NEW CASTLE     FAIR      79  55  43 E6        30.12F
BEAVER COUNTY  NOT AVBL
BUTLER*        MOSUNNY   79  57  47 E6        30.14S
PITTSBURGH INT CLOUDY    82  59  45 E7        30.10F
PITTSBURGH     PTSUNNY   80  54  40 E3        30.09F
INDIANA*       SUNNY     79  61  53 E5        30.15F
LATROBE        PTSUNNY   82  63  51 CALM      30.10F
WASHINGTON CO* NOT AVBL
$$

PAZ004>006-010>012-017>019-024>028-033>037-041-042-045-046-049>053-052200-
CENTRAL PENNSYLVANIA

CITY           SKY/WX    TMP DP  RH WIND       PRES   REMARKS
BRADFORD       MOSUNNY   77  51  40 N5        30.17F
DUBOIS         MOSUNNY   78  52  40 S6        30.15S
CLEARFIELD     MOSUNNY   78  55  44 NE6       30.15F
JOHNSTOWN      PTSUNNY   75  59  57 SE9       30.16S
ALTOONA        PTSUNNY   77  63  61 E7        30.15F
STATE COLLEGE  MOSUNNY   75  64  69 CALM      30.15
WILLIAMSPORT   SUNNY     80  61  52 S6        30.11S
SELINSGROVE    MOSUNNY   79  64  60 CALM      30.13F
FT INDIANTOWN  SUNNY     78  65  63 S6        30.13S
CAPITAL CITY   SUNNY     79  64  60 E6        30.12S
HARRISBURG     CLOUDY    79  65  62 S3        30.11F
YORK           PTSUNNY   80  65  59 SE3       30.12F
$$

PAZ038>040-043-044-047-048-054-055-060>062-067>071-052200-
EASTERN PENNSYLVANIA

CITY           SKY/WX    TMP DP  RH WIND       PRES   REMARKS
SCRANTON       SUNNY     81  55  40 NW6       30.13
MOUNT POCONO   SUNNY     78  50  37 NW5       30.17
ALLENTOWN      MOSUNNY   82  59  45 CALM      30.11F
QUAKERTOWN*    PTCLDY    81  64  57 SW5       30.13F
READING        MOSUNNY   81  64  56 W3        30.11F
LANCASTER      PTSUNNY   80  65  59 NW3       30.12F
COATESVILLE    PTCLDY    77  66  69 CALM      30.14F
POTTSTOWN      MOSUNNY   79  65  62 S3        30.13F
BLUE BELL      SUNNY     82  64  54 W3        30.11F
DOYLESTOWN     SUNNY     80  62  54 CALM      30.11F
WILLOW GROVE   NOT AVBL
NORTH PHILA    PTSUNNY   84  60  44 CALM      30.12F
PHILADELPHIA   MOSUNNY   83  63  50 S6        30.11F
$$



USA.gov is the U.S. government's official web portal to all federal, state and local government web resources and services.